• In Romania
  • List of Countries
  • For 7 days
  • Water Temperature
  • Satellite Maps
  • Weather Map
  • Weather Widgets
  • user-avatar
    Login

    Hourly Weather Shusha

    Today, 20 July, Friday

    Time Temperature Precipitation Wind Pressure Humidity
    00:00 +24°C° 0.1 mm 2 mps 655 mmHg 69%
    01:00 +23°C° 0 mm 2 mps 655 mmHg 69%
    02:00 +23°C° 0 mm 2 mps 655 mmHg 70%
    03:00 +21°C° 0 mm 2 mps 655 mmHg 70%
    04:00 +23°C° 0 mm 2 mps 655 mmHg 68%
    05:00 +23°C° 0 mm 1 mps 655 mmHg 65%
    06:00 +24°C° 0 mm 1 mps 656 mmHg 63%
    07:00 +26°C° 0 mm 2 mps 656 mmHg 54%
    08:00 +27°C° 0 mm 2 mps 656 mmHg 45%
    09:00 +29°C° 0 mm 3 mps 657 mmHg 36%
    10:00 +30°C° 0 mm 3 mps 657 mmHg 34%
    11:00 +33°C° 0 mm 3 mps 657 mmHg 31%
    12:00 +34°C° 0 mm 4 mps 657 mmHg 28%
    13:00 +34°C° 0 mm 4 mps 656 mmHg 28%
    14:00 +35°C° 0 mm 4 mps 656 mmHg 27%
    15:00 +35°C° 0 mm 4 mps 656 mmHg 27%
    16:00 +34°C° 0 mm 4 mps 656 mmHg 32%
    17:00 +32°C° 0 mm 4 mps 655 mmHg 37%
    18:00 +30°C° 0 mm 4 mps 655 mmHg 42%
    19:00 +28°C° 0 mm 4 mps 655 mmHg 50%
    20:00 +26°C° 0 mm 3 mps 655 mmHg 58%
    21:00 +24°C° 0 mm 2 mps 654 mmHg 66%
    22:00 +23°C° 0 mm 2 mps 655 mmHg 68%
    23:00 +23°C° 0 mm 2 mps 655 mmHg 71%

    Tomorrow, 21 July, Saturday

    Time Temperature Precipitation Wind Pressure Humidity
    00:00 +21°C° 0 mm 2 mps 655 mmHg 73%
    01:00 +22°C° 0 mm 1 mps 655 mmHg 73%
    02:00 +22°C° 0 mm 1 mps 655 mmHg 74%
    03:00 +21°C° 0 mm 1 mps 655 mmHg 74%
    04:00 +22°C° 0 mm 1 mps 655 mmHg 72%
    05:00 +22°C° 0 mm 1 mps 656 mmHg 70%
    06:00 +23°C° 0 mm 1 mps 656 mmHg 67%
    07:00 +24°C° 0 mm 2 mps 657 mmHg 61%
    08:00 +26°C° 0 mm 2 mps 657 mmHg 54%
    09:00 +28°C° 0 mm 3 mps 658 mmHg 48%
    10:00 +29°C° 0 mm 3 mps 658 mmHg 45%
    11:00 +30°C° 0 mm 3 mps 658 mmHg 41%
    12:00 +32°C° 0 mm 4 mps 658 mmHg 38%
    13:00 +32°C° 0 mm 4 mps 657 mmHg 37%
    14:00 +33°C° 0 mm 4 mps 657 mmHg 35%
    15:00 +33°C° 0 mm 4 mps 657 mmHg 34%
    16:00 +32°C° 0 mm 4 mps 657 mmHg 37%
    17:00 +30°C° 0 mm 5 mps 657 mmHg 40%
    18:00 +29°C° 0 mm 5 mps 656 mmHg 42%
    19:00 +27°C° 0 mm 4 mps 657 mmHg 49%
    20:00 +25°C° 0 mm 3 mps 657 mmHg 55%
    21:00 +23°C° 0 mm 2 mps 657 mmHg 61%
    22:00 +23°C° 0 mm 2 mps 657 mmHg 63%
    23:00 +21°C° 0 mm 2 mps 657 mmHg 65%

    Day after tomorrow, 22 July, Sunday

    Time Temperature Precipitation Wind Pressure Humidity
    00:00 +21°C° 0 mm 2 mps 657 mmHg 67%
    01:00 +20°C° 0 mm 2 mps 657 mmHg 68%
    02:00 +20°C° 0 mm 2 mps 657 mmHg 68%
    03:00 +20°C° 0 mm 2 mps 657 mmHg 69%
    04:00 +20°C° 0 mm 2 mps 657 mmHg 66%
    05:00 +22°C° 0 mm 1 mps 657 mmHg 64%
    06:00 +22°C° 0 mm 1 mps 657 mmHg 61%
    07:00 +24°C° 0 mm 2 mps 658 mmHg 54%
    08:00 +25°C° 0 mm 2 mps 658 mmHg 48%
    09:00 +27°C° 0 mm 3 mps 659 mmHg 41%
    10:00 +28°C° 0 mm 3 mps 659 mmHg 39%
    11:00 +29°C° 0 mm 4 mps 659 mmHg 36%
    12:00 +30°C° 0 mm 4 mps 659 mmHg 34%
    13:00 +30°C° 0 mm 4 mps 658 mmHg 34%
    14:00 +32°C° 0 mm 4 mps 658 mmHg 33%
    15:00 +32°C° 0 mm 5 mps 657 mmHg 33%
    16:00 +30°C° 0 mm 5 mps 657 mmHg 35%
    17:00 +30°C° 0 mm 5 mps 657 mmHg 37%
    18:00 +29°C° 0 mm 5 mps 657 mmHg 39%
    19:00 +27°C° 0 mm 4 mps 657 mmHg 44%
    20:00 +25°C° 0 mm 3 mps 657 mmHg 50%
    21:00 +23°C° 0 mm 2 mps 657 mmHg 55%
    22:00 +21°C° 0 mm 2 mps 657 mmHg 57%
    23:00 +21°C° 0 mm 2 mps 656 mmHg 58%

    23 July, Monday

    Time Temperature Precipitation Wind Pressure Humidity
    00:00 +20°C° 0 mm 2 mps 656 mmHg 60%
    01:00 +20°C° 0 mm 2 mps 656 mmHg 60%
    02:00 +19°C° 0 mm 2 mps 656 mmHg 60%
    03:00 +19°C° 0 mm 2 mps 656 mmHg 61%
    04:00 +20°C° 0 mm 2 mps 656 mmHg 59%
    05:00 +21°C° 0 mm 1 mps 656 mmHg 57%
    06:00 +22°C° 0 mm 1 mps 657 mmHg 56%
    07:00 +24°C° 0 mm 2 mps 657 mmHg 50%
    08:00 +25°C° 0 mm 2 mps 657 mmHg 44%
    09:00 +27°C° 0 mm 3 mps 658 mmHg 39%
    10:00 +28°C° 0 mm 3 mps 658 mmHg 36%
    11:00 +29°C° 0 mm 3 mps 657 mmHg 34%
    12:00 +30°C° 0 mm 4 mps 657 mmHg 32%
    13:00 +32°C° 0 mm 4 mps 657 mmHg 31%
    14:00 +32°C° 0 mm 4 mps 657 mmHg 30%
    15:00 +33°C° 0 mm 4 mps 656 mmHg 30%
    16:00 +32°C° 0 mm 4 mps 656 mmHg 32%
    17:00 +30°C° 0 mm 4 mps 656 mmHg 34%
    18:00 +29°C° 0 mm 4 mps 656 mmHg 36%
    19:00 +28°C° 0 mm 3 mps 656 mmHg 41%
    20:00 +26°C° 0 mm 2 mps 656 mmHg 46%
    21:00 +24°C° 0 mm 2 mps 656 mmHg 51%
    22:00 +23°C° 0 mm 2 mps 656 mmHg 52%
    23:00 +23°C° 0 mm 2 mps 656 mmHg 53%

    24 July, Tuesday

    Time Temperature Precipitation Wind Pressure Humidity
    00:00 +21°C° 0 mm 2 mps 656 mmHg 55%
    01:00 +21°C° 0 mm 2 mps 656 mmHg 55%
    02:00 +20°C° 0 mm 2 mps 656 mmHg 56%
    03:00 +20°C° 0 mm 2 mps 656 mmHg 57%
    04:00 +21°C° 0 mm 2 mps 656 mmHg 56%
    05:00 +21°C° 0 mm 2 mps 656 mmHg 55%
    06:00 +21°C° 0 mm 2 mps 657 mmHg 54%
    07:00 +24°C° 0 mm 2 mps 657 mmHg 48%
    08:00 +26°C° 0 mm 2 mps 658 mmHg 42%
    09:00 +28°C° 0 mm 3 mps 658 mmHg 37%
    10:00 +29°C° 0 mm 3 mps 658 mmHg 35%
    11:00 +30°C° 0 mm 3 mps 658 mmHg 32%
    12:00 +31°C° 0 mm 3 mps 658 mmHg 30%
    13:00 +33°C° 0 mm 3 mps 658 mmHg 29%
    14:00 +33°C° 0 mm 3 mps 657 mmHg 29%
    15:00 +34°C° 0 mm 3 mps 657 mmHg 29%
    16:00 +33°C° 0 mm 3 mps 657 mmHg 30%
    17:00 +31°C° 0 mm 3 mps 657 mmHg 32%
    18:00 +31°C° 0 mm 3 mps 657 mmHg 34%
    19:00 +29°C° 0 mm 2 mps 657 mmHg 39%
    20:00 +27°C° 0 mm 2 mps 657 mmHg 44%
    21:00 +25°C° 0 mm 2 mps 657 mmHg 49%
    22:00 +24°C° 0 mm 2 mps 657 mmHg 50%
    23:00 +24°C° 0 mm 2 mps 657 mmHg 50%

    25 July, Wednesday

    Time Temperature Precipitation Wind Pressure Humidity
    00:00 +23°C° 0 mm 2 mps 657 mmHg 51%
    01:00 +23°C° 0 mm 2 mps 657 mmHg 51%
    02:00 +23°C° 0 mm 2 mps 657 mmHg 51%
    03:00 +21°C° 0 mm 2 mps 657 mmHg 51%
    04:00 +23°C° 0 mm 2 mps 657 mmHg 50%
    05:00 +23°C° 0 mm 2 mps 658 mmHg 50%
    06:00 +24°C° 0 mm 2 mps 658 mmHg 50%
    07:00 +26°C° 0 mm 2 mps 658 mmHg 45%
    08:00 +28°C° 0 mm 2 mps 659 mmHg 40%
    09:00 +30°C° 0 mm 2 mps 659 mmHg 35%
    10:00 +31°C° 0 mm 3 mps 659 mmHg 32%
    11:00 +33°C° 0 mm 3 mps 659 mmHg 30%
    12:00 +34°C° 0 mm 4 mps 659 mmHg 27%
    13:00 +35°C° 0 mm 4 mps 658 mmHg 27%
    14:00 +35°C° 0 mm 4 mps 658 mmHg 27%
    15:00 +36°C° 0 mm 4 mps 658 mmHg 26%
    16:00 +35°C° 0 mm 4 mps 658 mmHg 29%
    17:00 +34°C° 0 mm 4 mps 657 mmHg 32%
    18:00 +33°C° 0 mm 4 mps 657 mmHg 34%
    19:00 +30°C° 0 mm 3 mps 657 mmHg 39%
    20:00 +27°C° 0 mm 3 mps 657 mmHg 44%
    21:00 +25°C° 0 mm 2 mps 657 mmHg 49%
    22:00 +25°C° 0 mm 2 mps 656 mmHg 50%
    23:00 +24°C° 0 mm 2 mps 656 mmHg 51%
    Show more